Location: Peterborough
(44.3091°N, 78.3197°W)
Time: 04:33:28
(UTC-04:00)

Tiros 1 - Pass Details

Date: 09 April 2023
Orbit: 627 x 661 km, 48.4° (Epoch: 09 June)

Event Time Altitude Azimuth Distance (km) Brightness Sun altitude
Rises 03:52:54 0° 280° (W) 2,971 - -27.1°
Reaches altitude 10° 03:55:18 10° 286° (WNW) 2,064 - -26.8°
Exits shadow 03:59:20 48° 335° (NNW) 861 7.8 -26.3°
Maximum altitude 03:59:58 52° 3° (N) 823 7.8 -26.2°
Drops below altitude 10° 04:04:39 10° 80° (E) 2,076 10.5 -25.6°
Sets 04:07:03 0° 85° (E) 2,989 11.4 -25.3°
